GJLL EGNS-EGNH

Flight info

Callsign GJLL
Flight time N/A
Altitude 13000
Route TIMIS Q39 NOMSU Q4 WAL
Aircraft B350/L-SBGRW/S

Departure

Time 2026-04-30 20:20
Airport Isle of Man Airport (EGNS)

Arrival

Time N/A
Airport Blackpool Airport (EGNH)
Time Latitude Longitude Altitude Speed Heading
2026-04-30 20:15 54.08666 -4.63299 41 ft 0 kts 226°
2026-04-30 20:17 54.08646 -4.63306 41 ft 20 kts 171°
2026-04-30 20:18 54.08609 -4.63192 41 ft 11 kts 68°
2026-04-30 20:18 54.08528 -4.63023 41 ft 30 kts 167°
2026-04-30 20:18 54.08398 -4.63031 38 ft 15 kts 244°
2026-04-30 20:18 54.08382 -4.63261 37 ft 24 kts 256°
2026-04-30 20:19 54.08312 -4.63359 36 ft 13 kts 159°
2026-04-30 20:19 54.08221 -4.63285 36 ft 16 kts 112°
2026-04-30 20:19 54.08285 -4.62748 39 ft 89 kts 78°
2026-04-30 20:19 54.08423 -4.61396 272 ft 122 kts 101°
2026-04-30 20:20 54.07730 -4.60960 818 ft 154 kts 203°
2026-04-30 20:20 54.06806 -4.61949 1361 ft 155 kts 185°
2026-04-30 20:20 54.05675 -4.62027 1634 ft 170 kts 175°
2026-04-30 20:20 54.04433 -4.62036 1893 ft 187 kts 175°
2026-04-30 20:21 54.03118 -4.62259 2370 ft 180 kts 189°
2026-04-30 20:21 54.01942 -4.61699 2490 ft 198 kts 143°
2026-04-30 20:21 54.00781 -4.60564 2827 ft 200 kts 153°
2026-04-30 20:21 53.99431 -4.59408 2454 ft 229 kts 152°
2026-04-30 20:22 53.97980 -4.58162 2277 ft 236 kts 152°
2026-04-30 20:22 53.96508 -4.56902 2199 ft 237 kts 152°
2026-04-30 20:22 53.95043 -4.55643 2163 ft 235 kts 152°
2026-04-30 20:22 53.93584 -4.54396 2151 ft 234 kts 152°
2026-04-30 20:23 53.92160 -4.53077 2151 ft 233 kts 148°
2026-04-30 20:23 53.90801 -4.51586 2148 ft 233 kts 145°
2026-04-30 20:23 53.89500 -4.49935 2142 ft 234 kts 141°
2026-04-30 20:23 53.88264 -4.48133 2138 ft 235 kts 137°
2026-04-30 20:24 53.87118 -4.46167 2134 ft 235 kts 130°
2026-04-30 20:24 53.86147 -4.43933 2136 ft 236 kts 126°
2026-04-30 20:24 53.85237 -4.41625 2136 ft 236 kts 125°
2026-04-30 20:24 53.84364 -4.39320 2134 ft 235 kts 124°
2026-04-30 20:25 53.82627 -4.34652 2203 ft 231 kts 124°
2026-04-30 20:25 53.81795 -4.32383 2507 ft 220 kts 124°
2026-04-30 20:26 53.80296 -4.28199 3510 ft 200 kts 124°
2026-04-30 20:26 53.78891 -4.24193 4356 ft 202 kts 124°
2026-04-30 20:26 53.78151 -4.22081 4507 ft 215 kts 124°
2026-04-30 20:27 53.76547 -4.17536 4610 ft 234 kts 124°
2026-04-30 20:27 53.74846 -4.12755 4634 ft 243 kts 124°
2026-04-30 20:28 53.73083 -4.07815 4647 ft 247 kts 124°
2026-04-30 20:28 53.71310 -4.02806 4705 ft 247 kts 124°
2026-04-30 20:29 53.69641 -3.98012 5394 ft 232 kts 124°
2026-04-30 20:30 53.67112 -3.90779 5618 ft 245 kts 124°
2026-04-30 20:30 53.64430 -3.83280 5644 ft 252 kts 124°
2026-04-30 20:31 53.61696 -3.75676 5632 ft 254 kts 124°
2026-04-30 20:32 53.58774 -3.67635 4495 ft 274 kts 124°